Time,TemperatureF,DewpointF,PressureIn,WindDirection,WindDirectionDegrees,WindSpeedMPH,WindSpeedGustMPH,Humidity,HourlyPrecipIn,Conditions,Clouds,dailyrainin,SoftwareType,DateUTC
2013-01-10 00:02:00,32.0,30.0,29.74,SE,146,0.0,-999.0,92,-99.99,,,-99.99,,2013-01-10 07:02:00,
2013-01-10 00:12:00,32.0,30.0,29.74,SE,146,0.0,-999.0,92,-99.99,,,-99.99,,2013-01-10 07:12:00,
2013-01-10 00:22:00,32.0,29.0,29.74,SE,146,1.0,-999.0,87,-99.99,,,-99.99,,2013-01-10 07:22:00,
2013-01-10 00:32:00,32.0,28.0,29.73,SSE,147,1.0,-999.0,85,-99.99,,,-99.99,,2013-01-10 07:32:00,
2013-01-10 00:42:00,32.0,28.0,29.73,SSE,147,1.0,-999.0,85,-99.99,,,-99.99,,2013-01-10 07:42:00,
2013-01-10 00:52:00,32.0,28.0,29.73,SSE,147,1.0,-999.0,85,-99.99,,,-99.99,,2013-01-10 07:52:00,
2013-01-10 01:02:00,30.0,26.0,29.73,SSE,147,0.0,-999.0,86,-99.99,,,-99.99,,2013-01-10 08:02:00,
2013-01-10 01:12:00,30.0,26.0,29.73,SSE,147,0.0,-999.0,86,-99.99,,,-99.99,,2013-01-10 08:12:00,
2013-01-10 01:22:00,30.0,26.0,29.72,SSE,147,0.0,-999.0,86,-99.99,,,-99.99,,2013-01-10 08:22:00,
2013-01-10 01:32:00,30.0,27.0,29.72,SSE,147,0.0,-999.0,87,-99.99,,,-99.99,,2013-01-10 08:32:00,
2013-01-10 01:42:00,30.0,27.0,29.72,SSE,147,0.0,-999.0,87,-99.99,,,-99.99,,2013-01-10 08:42:00,
2013-01-10 01:52:00,31.0,28.0,29.72,SSE,147,0.0,-999.0,88,-99.99,,,-99.99,,2013-01-10 08:52:00,
2013-01-10 02:02:00,31.0,27.0,29.72,SSE,147,0.0,-999.0,86,-99.99,,,-99.99,,2013-01-10 09:02:00,
2013-01-10 02:12:00,31.0,27.0,29.72,SSE,147,0.0,-999.0,86,-99.99,,,-99.99,,2013-01-10 09:12:00,
2013-01-10 02:22:00,30.0,27.0,29.72,SSE,153,0.0,-999.0,87,-99.99,,,-99.99,,2013-01-10 09:22:00,
2013-01-10 02:32:00,31.0,28.0,29.71,SSE,155,1.0,-999.0,87,-99.99,,,-99.99,,2013-01-10 09:32:00,
2013-01-10 02:42:00,31.0,28.0,29.71,SSE,155,1.0,-999.0,87,-99.99,,,-99.99,,2013-01-10 09:42:00,
2013-01-10 02:52:00,31.0,28.0,29.71,SSE,155,0.0,-999.0,87,-99.99,,,-99.99,,2013-01-10 09:52:00,
2013-01-10 03:03:00,31.0,28.0,29.71,SSE,155,0.0,-999.0,88,-99.99,,,-99.99,,2013-01-10 10:03:00,
2013-01-10 03:12:00,31.0,28.0,29.71,SSE,155,0.0,-999.0,88,-99.99,,,-99.99,,2013-01-10 10:12:00,
2013-01-10 03:22:00,31.0,28.0,29.71,SSE,155,0.0,-999.0,87,-99.99,,,-99.99,,2013-01-10 10:22:00,
2013-01-10 03:32:00,31.0,28.0,29.70,SSE,155,0.0,-999.0,88,-99.99,,,-99.99,,2013-01-10 10:32:00,
2013-01-10 03:42:00,31.0,28.0,29.70,SSE,155,0.0,-999.0,88,-99.99,,,-99.99,,2013-01-10 10:42:00,
2013-01-10 03:52:00,30.0,27.0,29.70,SSE,155,0.0,-999.0,88,-99.99,,,-99.99,,2013-01-10 10:52:00,
2013-01-10 04:02:00,31.0,28.0,29.69,SSE,155,0.0,-999.0,89,-99.99,,,-99.99,,2013-01-10 11:02:00,
2013-01-10 04:12:00,31.0,28.0,29.69,SSE,155,0.0,-999.0,89,-99.99,,,-99.99,,2013-01-10 11:12:00,
2013-01-10 04:22:00,31.0,28.0,29.70,SSE,155,1.0,-999.0,88,-99.99,,,-99.99,,2013-01-10 11:22:00,
2013-01-10 04:32:00,31.0,28.0,29.69,SSE,155,1.0,-999.0,88,-99.99,,,-99.99,,2013-01-10 11:32:00,
2013-01-10 04:42:00,31.0,28.0,29.69,SSE,155,1.0,-999.0,88,-99.99,,,-99.99,,2013-01-10 11:42:00,
2013-01-10 04:52:00,31.0,28.0,29.67,SSE,155,0.0,-999.0,89,-99.99,,,-99.99,,2013-01-10 11:52:00,
2013-01-10 05:03:00,31.0,28.0,29.67,SSE,155,0.0,-999.0,89,-99.99,,,-99.99,,2013-01-10 12:03:00,
2013-01-10 05:12:00,31.0,28.0,29.67,SSE,155,0.0,-999.0,89,-99.99,,,-99.99,,2013-01-10 12:12:00,
2013-01-10 05:22:00,31.0,28.0,29.67,SSE,155,0.0,-999.0,88,-99.99,,,-99.99,,2013-01-10 12:22:00,
2013-01-10 05:33:00,30.0,27.0,29.66,SSE,155,1.0,-999.0,87,-99.99,,,-99.99,,2013-01-10 12:33:00,
2013-01-10 05:42:00,30.0,27.0,29.66,SSE,155,1.0,-999.0,87,-99.99,,,-99.99,,2013-01-10 12:42:00,
2013-01-10 05:52:00,30.0,27.0,29.64,SSE,155,0.0,-999.0,88,-99.99,,,-99.99,,2013-01-10 12:52:00,
2013-01-10 06:02:00,30.0,27.0,29.64,SSE,155,0.0,-999.0,88,-99.99,,,-99.99,,2013-01-10 13:02:00,
2013-01-10 06:12:00,30.0,27.0,29.64,SSE,155,0.0,-999.0,88,-99.99,,,-99.99,,2013-01-10 13:12:00,
2013-01-10 06:22:00,30.0,27.0,29.64,SSE,157,0.0,-999.0,89,-99.99,,,-99.99,,2013-01-10 13:22:00,
2013-01-10 06:32:00,29.0,26.0,29.64,SSE,157,0.0,-999.0,88,-99.99,,,-99.99,,2013-01-10 13:32:00,
2013-01-10 06:42:00,29.0,26.0,29.64,SSE,157,0.0,-999.0,88,-99.99,,,-99.99,,2013-01-10 13:42:00,
2013-01-10 06:52:00,28.0,25.0,29.63,SSE,157,1.0,-999.0,89,-99.99,,,-99.99,,2013-01-10 13:52:00,
2013-01-10 07:02:00,28.0,25.0,29.63,SSE,157,0.0,-999.0,89,-99.99,,,-99.99,,2013-01-10 14:02:00,
2013-01-10 07:12:00,28.0,25.0,29.63,SSE,157,0.0,-999.0,89,-99.99,,,-99.99,,2013-01-10 14:12:00,
2013-01-10 07:22:00,28.0,25.0,29.63,SSE,157,0.0,-999.0,90,-99.99,,,-99.99,,2013-01-10 14:22:00,
2013-01-10 07:33:00,28.0,25.0,29.62,SSE,157,0.0,-999.0,90,-99.99,,,-99.99,,2013-01-10 14:33:00,
2013-01-10 07:43:00,28.0,25.0,29.62,SSE,157,0.0,-999.0,90,-99.99,,,-99.99,,2013-01-10 14:43:00,
2013-01-10 07:53:00,28.0,26.0,29.62,SSE,157,0.0,-999.0,91,-99.99,,,-99.99,,2013-01-10 14:53:00,
2013-01-10 08:03:00,28.0,26.0,29.61,SSE,157,0.0,-999.0,91,-99.99,,,-99.99,,2013-01-10 15:03:00,
2013-01-10 08:12:00,28.0,26.0,29.61,SSE,157,0.0,-999.0,91,-99.99,,,-99.99,,2013-01-10 15:12:00,
2013-01-10 08:23:00,28.0,26.0,29.61,SSE,157,0.0,-999.0,91,-99.99,,,-99.99,,2013-01-10 15:23:00,
2013-01-10 08:33:00,29.0,26.0,29.61,SSE,157,1.0,-999.0,90,-99.99,,,-99.99,,2013-01-10 15:33:00,
2013-01-10 08:43:00,29.0,26.0,29.61,SSE,157,1.0,-999.0,90,-99.99,,,-99.99,,2013-01-10 15:43:00,
2013-01-10 08:53:00,28.0,25.0,29.62,SSE,157,1.0,-999.0,90,-99.99,,,-99.99,,2013-01-10 15:53:00,
2013-01-10 09:02:00,29.0,27.0,29.62,SSE,157,2.0,-999.0,91,-99.99,,,-99.99,,2013-01-10 16:02:00,
2013-01-10 09:13:00,29.0,27.0,29.62,SSE,157,2.0,-999.0,91,-99.99,,,-99.99,,2013-01-10 16:13:00,
2013-01-10 09:23:00,29.0,27.0,29.60,NE,50,1.0,-999.0,91,-99.99,,,-99.99,,2013-01-10 16:23:00,
2013-01-10 09:33:00,29.0,26.0,29.60,NE,50,2.0,-999.0,90,-99.99,,,-99.99,,2013-01-10 16:33:00,
2013-01-10 09:43:00,29.0,26.0,29.60,NE,50,2.0,-999.0,90,-99.99,,,-99.99,,2013-01-10 16:43:00,
2013-01-10 09:52:00,29.0,26.0,29.59,NE,48,2.0,-999.0,90,-99.99,,,-99.99,,2013-01-10 16:52:00,
2013-01-10 10:03:00,30.0,27.0,29.58,NE,40,2.0,-999.0,90,-99.99,,,-99.99,,2013-01-10 17:03:00,
2013-01-10 10:12:00,30.0,27.0,29.58,NE,40,2.0,-999.0,90,-99.99,,,-99.99,,2013-01-10 17:12:00,
2013-01-10 10:22:00,30.0,27.0,29.58,NE,40,0.0,-999.0,89,-99.99,,,-99.99,,2013-01-10 17:22:00,
2013-01-10 10:33:00,31.0,28.0,29.57,NE,40,1.0,-999.0,89,-99.99,,,-99.99,,2013-01-10 17:33:00,
2013-01-10 10:42:00,31.0,28.0,29.57,NE,40,1.0,-999.0,89,-99.99,,,-99.99,,2013-01-10 17:42:00,
2013-01-10 10:53:00,32.0,29.0,29.57,NE,40,1.0,-999.0,88,-99.99,,,-99.99,,2013-01-10 17:53:00,
2013-01-10 11:03:00,31.0,27.0,29.57,NE,40,1.0,-999.0,86,-99.99,,,-99.99,,2013-01-10 18:03:00,
2013-01-10 11:12:00,31.0,28.0,29.55,NNE,26,2.0,-999.0,87,-99.99,,,-99.99,,2013-01-10 18:12:00,
2013-01-10 11:23:00,31.0,28.0,29.55,NNE,26,2.0,-999.0,87,-99.99,,,-99.99,,2013-01-10 18:23:00,
2013-01-10 11:33:00,31.0,28.0,29.54,NW,317,5.0,-999.0,88,-99.99,,,-99.99,,2013-01-10 18:33:00,
2013-01-10 11:43:00,32.0,29.0,29.52,NNW,336,6.0,-999.0,87,-99.99,,,-99.99,,2013-01-10 18:43:00,
2013-01-10 11:52:00,32.0,29.0,29.52,NNW,336,6.0,-999.0,87,-99.99,,,-99.99,,2013-01-10 18:52:00,
2013-01-10 12:03:00,32.0,29.0,29.54,NNW,336,2.0,-999.0,87,-99.99,,,-99.99,,2013-01-10 19:03:00,
2013-01-10 12:13:00,32.0,28.0,29.53,NNW,348,3.0,-999.0,86,-99.99,,,-99.99,,2013-01-10 19:13:00,
2013-01-10 12:23:00,32.0,28.0,29.53,NNW,348,3.0,-999.0,86,-99.99,,,-99.99,,2013-01-10 19:23:00,
2013-01-10 12:33:00,32.0,29.0,29.54,NNW,344,2.0,-999.0,87,-99.99,,,-99.99,,2013-01-10 19:33:00,
2013-01-10 12:43:00,32.0,29.0,29.54,NNW,344,2.0,-999.0,87,-99.99,,,-99.99,,2013-01-10 19:43:00,
2013-01-10 12:52:00,33.0,29.0,29.53,NNW,344,3.0,-999.0,86,-99.99,,,-99.99,,2013-01-10 19:52:00,
2013-01-10 13:03:00,33.0,29.0,29.52,NW,325,4.0,-999.0,86,-99.99,,,-99.99,,2013-01-10 20:03:00,
2013-01-10 13:12:00,33.0,29.0,29.52,NW,325,4.0,-999.0,86,-99.99,,,-99.99,,2013-01-10 20:12:00,
2013-01-10 13:24:00,33.0,30.0,29.52,NW,321,7.0,-999.0,87,-99.99,,,-99.99,,2013-01-10 20:24:00,
2013-01-10 13:33:00,33.0,29.0,29.51,NNW,329,9.0,-999.0,86,-99.99,,,-99.99,,2013-01-10 20:33:00,
2013-01-10 13:42:00,33.0,29.0,29.51,NNW,329,9.0,-999.0,86,-99.99,,,-99.99,,2013-01-10 20:42:00,
2013-01-10 14:03:00,33.0,29.0,29.54,NW,315,11.0,-999.0,86,-99.99,,,-99.99,,2013-01-10 21:03:00,
2013-01-10 14:12:00,33.0,29.0,29.54,NW,315,11.0,-999.0,86,-99.99,,,-99.99,,2013-01-10 21:12:00,
2013-01-10 14:23:00,34.0,30.0,29.54,NW,326,11.0,-999.0,85,-99.99,,,-99.99,,2013-01-10 21:23:00,
2013-01-10 14:33:00,34.0,30.0,29.54,NNW,331,13.0,-999.0,84,-99.99,,,-99.99,,2013-01-10 21:33:00,
2013-01-10 14:42:00,34.0,30.0,29.54,NNW,331,13.0,-999.0,84,-99.99,,,-99.99,,2013-01-10 21:42:00,
2013-01-10 14:53:00,34.0,30.0,29.55,NNW,332,13.0,-999.0,85,-99.99,,,-99.99,,2013-01-10 21:53:00,
2013-01-10 15:03:00,34.0,30.0,29.54,NNW,333,13.0,-999.0,85,-99.99,,,-99.99,,2013-01-10 22:03:00,
2013-01-10 15:12:00,34.0,30.0,29.55,NW,310,14.0,-999.0,86,-99.99,,,-99.99,,2013-01-10 22:12:00,
2013-01-10 15:25:00,34.0,30.0,29.55,NW,310,14.0,-999.0,86,-99.99,,,-99.99,,2013-01-10 22:25:00,
2013-01-10 15:33:00,34.0,31.0,29.55,NW,317,14.0,-999.0,87,-99.99,,,-99.99,,2013-01-10 22:33:00,
2013-01-10 15:43:00,34.0,31.0,29.55,NW,317,14.0,-999.0,87,-99.99,,,-99.99,,2013-01-10 22:43:00,
2013-01-10 16:02:00,31.0,28.0,29.57,NW,319,17.0,-999.0,87,-99.99,,,-99.99,,2013-01-10 23:02:00,
2013-01-10 16:12:00,31.0,28.0,29.57,NW,319,17.0,-999.0,87,-99.99,,,-99.99,,2013-01-10 23:12:00,
2013-01-10 16:23:00,29.0,26.0,29.57,NW,321,15.0,-999.0,87,-99.99,,,-99.99,,2013-01-10 23:23:00,
2013-01-10 16:33:00,28.0,25.0,29.58,WNW,300,14.0,-999.0,88,-99.99,,,-99.99,,2013-01-10 23:33:00,
2013-01-10 16:43:00,28.0,25.0,29.58,WNW,300,14.0,-999.0,88,-99.99,,,-99.99,,2013-01-10 23:43:00,
2013-01-10 16:53:00,28.0,25.0,29.58,NW,306,14.0,-999.0,89,-99.99,,,-99.99,,2013-01-10 23:53:00,
2013-01-10 17:03:00,27.0,24.0,29.59,NW,312,13.0,-999.0,89,-99.99,,,-99.99,,2013-01-11 00:03:00,
2013-01-10 17:12:00,27.0,24.0,29.59,NW,312,13.0,-999.0,89,-99.99,,,-99.99,,2013-01-11 00:12:00,
2013-01-10 17:23:00,27.0,24.0,29.59,WNW,302,14.0,-999.0,89,-99.99,,,-99.99,,2013-01-11 00:23:00,
2013-01-10 17:33:00,26.0,23.0,29.59,NW,311,12.0,-999.0,89,-99.99,,,-99.99,,2013-01-11 00:33:00,
2013-01-10 17:42:00,26.0,23.0,29.59,NW,311,12.0,-999.0,89,-99.99,,,-99.99,,2013-01-11 00:42:00,
2013-01-10 17:52:00,26.0,23.0,29.60,WNW,284,10.0,-999.0,89,-99.99,,,-99.99,,2013-01-11 00:52:00,
2013-01-10 18:03:00,25.0,22.0,29.60,NW,306,11.0,-999.0,89,-99.99,,,-99.99,,2013-01-11 01:03:00,
2013-01-10 18:13:00,25.0,22.0,29.61,WNW,292,10.0,-999.0,90,-99.99,,,-99.99,,2013-01-11 01:13:00,
2013-01-10 18:23:00,25.0,22.0,29.61,WNW,292,10.0,-999.0,90,-99.99,,,-99.99,,2013-01-11 01:23:00,
2013-01-10 18:33:00,25.0,22.0,29.62,WNW,290,11.0,-999.0,89,-99.99,,,-99.99,,2013-01-11 01:33:00,
2013-01-10 18:43:00,25.0,22.0,29.62,WNW,290,11.0,-999.0,89,-99.99,,,-99.99,,2013-01-11 01:43:00,
2013-01-10 18:52:00,25.0,22.0,29.60,NW,306,12.0,-999.0,90,-99.99,,,-99.99,,2013-01-11 01:52:00,
2013-01-10 19:03:00,25.0,22.0,29.61,NW,311,13.0,-999.0,90,-99.99,,,-99.99,,2013-01-11 02:03:00,
2013-01-10 19:13:00,25.0,22.0,29.61,NW,311,13.0,-999.0,90,-99.99,,,-99.99,,2013-01-11 02:13:00,
2013-01-10 19:23:00,26.0,23.0,29.62,WNW,296,13.0,-999.0,90,-99.99,,,-99.99,,2013-01-11 02:23:00,
2013-01-10 19:33:00,26.0,23.0,29.62,NW,309,13.0,-999.0,89,-99.99,,,-99.99,,2013-01-11 02:33:00,
2013-01-10 19:43:00,26.0,23.0,29.62,NW,309,13.0,-999.0,89,-99.99,,,-99.99,,2013-01-11 02:43:00,
2013-01-10 19:53:00,25.0,22.0,29.62,NW,321,14.0,-999.0,89,-99.99,,,-99.99,,2013-01-11 02:53:00,
2013-01-10 20:02:00,24.0,21.0,29.62,WNW,297,14.0,-999.0,89,-99.99,,,-99.99,,2013-01-11 03:02:00,
2013-01-10 20:12:00,24.0,21.0,29.62,WNW,297,14.0,-999.0,89,-99.99,,,-99.99,,2013-01-11 03:12:00,
2013-01-10 20:23:00,24.0,21.0,29.62,NW,308,16.0,-999.0,89,-99.99,,,-99.99,,2013-01-11 03:23:00,
2013-01-10 20:33:00,23.0,20.0,29.62,WNW,300,15.0,-999.0,89,-99.99,,,-99.99,,2013-01-11 03:33:00,
2013-01-10 20:43:00,23.0,20.0,29.62,WNW,300,15.0,-999.0,89,-99.99,,,-99.99,,2013-01-11 03:43:00,
2013-01-10 20:53:00,23.0,20.0,29.63,NW,313,15.0,-999.0,89,-99.99,,,-99.99,,2013-01-11 03:53:00,
2013-01-10 21:02:00,23.0,20.0,29.63,NW,306,15.0,-999.0,89,-99.99,,,-99.99,,2013-01-11 04:02:00,
2013-01-10 21:12:00,23.0,20.0,29.63,NW,306,15.0,-999.0,89,-99.99,,,-99.99,,2013-01-11 04:12:00,
2013-01-10 21:22:00,23.0,21.0,29.64,NW,304,15.0,-999.0,90,-99.99,,,-99.99,,2013-01-11 04:22:00,
2013-01-10 21:33:00,23.0,21.0,29.65,NW,315,14.0,-999.0,90,-99.99,,,-99.99,,2013-01-11 04:33:00,
2013-01-10 21:42:00,23.0,21.0,29.65,NW,315,14.0,-999.0,90,-99.99,,,-99.99,,2013-01-11 04:42:00,
2013-01-10 21:52:00,23.0,21.0,29.66,NW,306,13.0,-999.0,90,-99.99,,,-99.99,,2013-01-11 04:52:00,
2013-01-10 22:03:00,22.0,20.0,29.67,NW,311,13.0,-999.0,90,-99.99,,,-99.99,,2013-01-11 05:03:00,
2013-01-10 22:12:00,22.0,20.0,29.67,NW,311,13.0,-999.0,90,-99.99,,,-99.99,,2013-01-11 05:12:00,
2013-01-10 22:22:00,22.0,20.0,29.67,WNW,292,12.0,-999.0,91,-99.99,,,-99.99,,2013-01-11 05:22:00,
2013-01-10 22:33:00,22.0,20.0,29.68,WNW,302,10.0,-999.0,91,-99.99,,,-99.99,,2013-01-11 05:33:00,
2013-01-10 22:42:00,22.0,20.0,29.68,WNW,302,10.0,-999.0,91,-99.99,,,-99.99,,2013-01-11 05:42:00,
2013-01-10 22:52:00,22.0,20.0,29.68,WNW,301,10.0,-999.0,92,-99.99,,,-99.99,,2013-01-11 05:52:00,
2013-01-10 23:03:00,22.0,20.0,29.68,WNW,302,10.0,-999.0,92,-99.99,,,-99.99,,2013-01-11 06:03:00,
2013-01-10 23:12:00,22.0,20.0,29.68,WNW,302,10.0,-999.0,92,-99.99,,,-99.99,,2013-01-11 06:12:00,
2013-01-10 23:22:00,22.0,20.0,29.68,WNW,302,10.0,-999.0,92,-99.99,,,-99.99,,2013-01-11 06:22:00,
2013-01-10 23:32:00,21.0,19.0,29.70,NW,306,11.0,-999.0,91,-99.99,,,-99.99,,2013-01-11 06:32:00,
2013-01-10 23:42:00,21.0,19.0,29.70,NW,306,11.0,-999.0,91,-99.99,,,-99.99,,2013-01-11 06:42:00,
2013-01-10 23:52:00,20.0,18.0,29.71,WNW,300,10.0,-999.0,91,-99.99,,,-99.99,,2013-01-11 06:52:00,